Overview Statistics Trail Chart Weather Telemetry Raw packets
 

This is the latest recevied weather packets stored in our database for station/object K0APR. If no packets are shown the sender has not sent any weather packets the latest 10 day(s).

<< 29 30 31 32 33 34 35 >>
Time Temp. Humidity Pressure Rain* Wind** Luminosity Snow
1788461726 33.33° C 55% 1006.7 hPa 0 mm - 573 W/m² -
1788461421 32.78° C 56% 1007 hPa 0 mm - 583 W/m² -
1788461118 32.22° C 57% 1007 hPa 0 mm - 625 W/m² -
1788460817 32.22° C 56% 1007 hPa 0 mm - 489 W/m² -
1788460517 32.22° C 58% 1007 hPa 0 mm - 328 W/m² -
1788460212 31.67° C 57% 1006.7 hPa 0 mm - 358 W/m² -
1788459910 32.22° C 57% 1006.7 hPa 0 mm - 252 W/m² -
1788459607 32.22° C 56% 1007 hPa 0 mm - 594 W/m² -
1788459306 32.78° C 55% 1006.7 hPa 0 mm - 581 W/m² -
1788459005 32.78° C 57% 1007.4 hPa 0 mm - 603 W/m² -
1788458701 32.22° C 58% 1007.4 hPa 0 mm - 494 W/m² -
1788458399 32.22° C 57% 1007.4 hPa 0 mm - 531 W/m² -
1788458094 31.67° C 58% 1007.4 hPa 0 mm - 473 W/m² -
1788457793 32.22° C 58% 1007.4 hPa 0 mm - 276 W/m² -
1788457488 32.22° C 57% 1007.7 hPa 0 mm - 403 W/m² -
1788457188 31.67° C 59% 1008.1 hPa 0 mm - 484 W/m² -
1788456883 31.11° C 61% 1008.1 hPa 0 mm - 466 W/m² -
1788456579 31.11° C 60% 1008.1 hPa 0 mm - 259 W/m² -
1788456274 30.56° C 60% 1007.7 hPa 0 mm - 223 W/m² -
1788455969 30.56° C 60% 1008.1 hPa 0 mm - 254 W/m² -
1788455665 31.67° C 59% 1008.1 hPa 0 mm - 219 W/m² -
1788455364 32.22° C 56% 1008.1 hPa 0 mm - 344 W/m² -
1788455059 32.22° C 57% 1008.1 hPa 0 mm - 563 W/m² -
1788454758 32.22° C 58% 1008.4 hPa 0 mm - 612 W/m² -
1788454453 32.78° C 55% 1008.4 hPa 0 mm - 396 W/m² -

* Rain latest hour (hover to see other rain measurements)
** Current wind speed in m/s (hover to see current wind gust speed)